Tracking 29892 objects as of 21-Nov-2024
HD Live streaming from Space Station
objects crossing your sky now

STARLINK-3726

Track STARLINK-3726 now!
10-day predictions
STARLINK-3726 is classified as:


NORAD ID: 52122
Int'l Code: 2022-029AL
Perigee: 545.8 km
Apogee: 548.0 km
Inclination: 53.2 °
Period: 95.4 minutes
Semi major axis: 6917 km
RCS: Unknown
Launch date: March 19, 2022
Source: United States (US)
Launch site: AIR FORCE EASTERN TEST RANGE (AFETR)
Your satellite tracking list
Your tracking list is empty




NASA's NSSDC Master Catalog

Two Line Element Set (TLE):
1 52122U 22029AL  24325.64185655 -.00001306  00000-0 -63952-4 0  9994
2 52122  53.2161  47.2043 0001572  83.2803 276.8367 15.08840969149228
Source of the keplerian elements: AFSPC